Location: Baggett Branch
(32.6074°N, 97.0167°W)
Time: 11:08:53
(UTC+00:00)

SKYMED 2 - Pass Details

Date: 10 February 2026
Orbit: 622 x 623 km, 97.9° (Epoch: 8 March)

Event Time Altitude Azimuth Distance (km) Brightness Sun altitude
Rises 12:18:07 0° 186° (S) 2,887 7.0 -12.6°
Reaches altitude 10° 12:20:25 10° 194° (SSW) 1,985 6.1 -12.1°
Maximum altitude 12:24:25 36° 262° (W) 986 4.1 -11.3°
Drops below altitude 10° 12:28:25 10° 329° (NNW) 1,996 5.8 -10.5°
Sets 12:30:46 0° 338° (NNW) 2,906 6.7 -10.0°
